Stations météo

réclame
Mon MeteoGroup
Eindhoven, Pays-Bas (6370): Température de l'air & dewpoint: 15.06.2018 19:00:00 - 21.06.2018 19:00:00 (CEST)Eindhoven, Pays-Bas (6370): Température de l'air 5cm: 15.06.2018 19:00:00 - 21.06.2018 19:00:00 (CEST)Eindhoven, Pays-Bas (6370): Vitesse du vent & gusts: 15.06.2018 19:00:00 - 21.06.2018 19:00:00 (CEST)Eindhoven, Pays-Bas (6370): Direction du vent: 15.06.2018 19:00:00 - 21.06.2018 19:00:00 (CEST)Eindhoven, Pays-Bas (6370): reduced air pressure: 15.06.2018 19:00:00 - 21.06.2018 19:00:00 (CEST)Eindhoven, Pays-Bas (6370): visibility: 15.06.2018 19:00:00 - 21.06.2018 19:00:00 (CEST)Eindhoven, Pays-Bas (6370): Quantités de précipitations: 15.06.2018 19:00:00 - 21.06.2018 19:00:00 (CEST)
Date & Time tt [°C] td [°C] tt 5cm [°C] ff [km/h] ff [knt] fx [km/h] fx [knt] dd ppp [hPa] vv [km] rr [mm]
21.06.2018 19:00:00 15,2 7,2 15,4 24 13 43 23 NW 1024,4 10 0,0
21.06.2018 18:00:00 16,1 7,2 16,4 22 12 43 23 NW 1023,9 10 0,0
21.06.2018 17:00:00 14,7 6,6 15,3 24 13 40 21 NW 1023,4 10 0,0
21.06.2018 16:00:00 15,3 5,9 15,6 28 15 47 25 NW 1023,0 10 0,0
21.06.2018 15:00:00 16,6 4,7 17,4 26 14 50 27 NW 1022,2 10 0,0
21.06.2018 14:00:00 16,8 4,2 19,1 26 14 47 25 WNW 1021,5 10 0,0
21.06.2018 13:00:00 17,1 5,1 19,4 29 16 47 25 WNW 1020,9 10 0,0
21.06.2018 12:00:00 17,6 6,3 19,4 28 15 47 25 WNW 1020,2 10 0,0
21.06.2018 11:00:00 16,7 8,7 17,9 22 12 47 25 NW 1019,6 10 0,0
21.06.2018 10:00:00 15,6 10,3 16,3 21 11 36 19 WNW 1018,6 10 0,0
21.06.2018 09:00:00 15,7 10,6 15,9 21 11 36 19 WNW 1017,7 10 0,0
21.06.2018 08:00:00 16,1 12,8 16,1 18 10 32 18 WNW 1016,6 10 0,0
21.06.2018 07:00:00 16,5 14,8 16,4 15 8 25 14 W 1016,0 10 0,0
21.06.2018 06:00:00 16,6 15,4 16,5 13 7 25 14 W 1015,5 9 0,0
21.06.2018 05:00:00 17,0 15,3 16,6 15 8 25 14 W 1015,3 10 0,0
21.06.2018 04:00:00 15,8 14,5 14,5 11 6 14 8 SSW 1015,7 10 0,0
21.06.2018 03:00:00 14,7 13,9 11,5 9 5 11 6 SW 1015,9 10 0,0
21.06.2018 02:00:00 15,2 14,2 9,6 5 3 7 4 WSW 1016,6 10 0,0
21.06.2018 01:00:00 15,5 14,0 10,8 8 4 11 6 SW 1016,9 10 0,0
21.06.2018 00:00:00 16,8 14,3 10,4 5 3 7 4 W 1017,5 10 0,0
20.06.2018 23:00:00 17,1 14,2 11,9 5 3 7 4 SW 1017,7 10 0,0
20.06.2018 22:00:00 20,5 14,9 17,0 5 3 18 10 W 1017,7 10 0,0
20.06.2018 21:00:00 24,1 14,7 23,8 9 5 22 12 W 1017,6 10 0,0
20.06.2018 20:00:00 25,8 13,8 26,3 13 7 25 14 W 1017,8 10 0,0
20.06.2018 19:00:00 26,6 14,5 27,9 15 8 29 16 W 1018,2 10 0,0
20.06.2018 18:00:00 27,2 14,6 29,2 15 8 29 16 WSW 1018,5 10 0,0
20.06.2018 17:00:00 27,5 14,8 29,6 18 10 29 16 WSW 1019,2 10 0,0
20.06.2018 16:00:00 27,1 14,9 29,8 13 7 29 16 W 1019,5 10 0,0
20.06.2018 15:00:00 25,7 15,4 28,8 15 8 25 14 W 1020,0 10 0,0
20.06.2018 14:00:00 24,5 15,7 27,4 15 8 25 14 SW 1020,7 10 0,0
20.06.2018 13:00:00 23,0 15,6 25,7 13 7 25 14 SW 1021,4 10 0,0
20.06.2018 12:00:00 21,2 15,5 22,5 16 9 25 14 WSW 1021,9 10 0,0
20.06.2018 11:00:00 19,4 15,1 19,7 13 7 22 12 SW 1022,2 10 0,0
20.06.2018 10:00:00 18,1 14,9 18,4 15 8 22 12 SW 1022,4 10 0,0
20.06.2018 09:00:00 17,6 14,4 17,8 15 8 25 14 SW 1022,4 10 0,0
20.06.2018 08:00:00 17,4 15,5 17,7 5 3 11 6 SW 1022,4 10 0,0
20.06.2018 07:00:00 15,8 15,5 15,7 4 2 7 4 S 1022,4 10 0,0
20.06.2018 06:00:00 13,9 13,8 9,2 4 2 7 4 SSW 1022,5 6 0,0
20.06.2018 05:00:00 13,1 12,9 7,2 5 3 7 4 SSW 1022,6 10 0,0
20.06.2018 04:00:00 14,2 13,8 10,8 5 3 11 6 S 1022,9 10 0,0
20.06.2018 03:00:00 15,0 14,5 11,4 5 3 11 6 SSW 1023,2 10 0,0
20.06.2018 02:00:00 17,3 15,3 16,8 8 4 11 6 S 1023,5 10 0,0
20.06.2018 01:00:00 18,4 15,6 18,0 8 4 11 6 SSW 1023,8 10 0,0
20.06.2018 00:00:00 18,7 15,6 18,2 9 5 14 8 SSW 1024,0 10 0,0
19.06.2018 23:00:00 18,5 16,3 17,8 4 2 7 4 - 1024,2 9 0,0
19.06.2018 22:00:00 18,7 16,3 18,4 4 2 4 2 S 1023,9 9 0,0
19.06.2018 21:00:00 19,4 16,4 19,3 4 2 7 4 - 1023,8 10 0,0
19.06.2018 20:00:00 19,7 15,8 19,8 5 3 11 6 W 1023,8 10 0,0
19.06.2018 19:00:00 19,9 15,8 20,1 9 5 18 10 WNW 1024,1 10 0,0
19.06.2018 18:00:00 20,9 15,7 21,5 11 6 22 12 WSW 1024,1 13 0,0
19.06.2018 17:00:00 20,8 15,6 22,1 15 8 22 12 W 1024,3 10 0,0
19.06.2018 16:00:00 20,7 15,2 21,7 13 7 22 12 WSW 1024,3 10 0,0
19.06.2018 15:00:00 20,9 15,3 22,3 15 8 22 12 W 1024,4 10 0,0
19.06.2018 14:00:00 20,3 15,8 21,2 16 9 22 12 WSW 1024,3 10 0,0
19.06.2018 13:00:00 20,1 15,7 20,4 13 7 22 12 SW 1024,1 10 0,0
19.06.2018 12:00:00 19,8 16,0 20,5 13 7 25 14 WSW 1023,8 10 0,0
19.06.2018 11:00:00 18,2 15,7 18,8 15 8 25 14 WSW 1023,9 9 0,0
19.06.2018 10:00:00 17,5 15,2 17,8 16 9 25 14 WSW 1023,6 10 0,0
19.06.2018 09:00:00 16,9 14,7 16,9 13 7 22 12 SW 1023,0 10 0,0
19.06.2018 08:00:00 16,1 14,2 16,0 13 7 25 14 SW 1022,7 10 0,0
19.06.2018 07:00:00 15,4 13,7 15,2 15 8 25 14 SW 1022,4 10 0,0
19.06.2018 06:00:00 14,6 13,1 14,3 13 7 22 12 SW 1022,1 10 0,0
19.06.2018 05:00:00 13,6 12,1 12,6 14 8 18 10 SW 1021,6 21 0,0
19.06.2018 04:00:00 12,8 11,1 12,3 11 6 18 10 SW 1021,4 30 0,0
19.06.2018 03:00:00 13,2 11,1 12,6 11 6 22 12 SW 1021,3 42 0,0
19.06.2018 02:00:00 13,5 11,3 12,7 11 6 18 10 SSW 1021,0 48 0,0
19.06.2018 01:00:00 13,4 11,2 12,3 9 5 14 8 SSW 1021,1 10 0,0
19.06.2018 00:00:00 13,4 11,3 11,1 8 4 14 8 SSW 1021,4 10 0,0
18.06.2018 23:00:00 15,6 11,6 14,8 13 7 22 12 WSW 1021,2 10 0,0
18.06.2018 22:00:00 17,1 12,4 15,6 11 6 22 12 WSW 1020,7 10 0,0
18.06.2018 21:00:00 17,9 12,6 17,3 9 5 29 16 WSW 1020,4 10 0,0
18.06.2018 20:00:00 18,9 12,6 18,9 15 8 29 16 WSW 1020,5 10 0,0
18.06.2018 19:00:00 19,0 12,4 19,2 22 12 47 25 WSW 1020,2 10 0,0
18.06.2018 18:00:00 20,0 13,5 20,9 18 10 32 18 W 1020,3 10 0,0
18.06.2018 17:00:00 19,8 14,4 20,3 18 10 32 18 WSW 1020,3 10 0,0
18.06.2018 16:00:00 20,4 15,3 21,3 18 10 29 16 SSW 1020,2 44 0,0
18.06.2018 15:00:00 19,0 15,8 18,8 16 9 29 16 SSW 1020,3 10 0,0
18.06.2018 14:00:00 18,6 15,1 19,2 21 11 32 18 SW 1020,5 10 0,0
18.06.2018 13:00:00 17,9 15,1 18,2 18 10 29 16 WSW 1020,4 10 0,0
18.06.2018 12:00:00 17,8 15,3 18,0 21 11 32 18 SW 1020,0 6 0,0
18.06.2018 11:00:00 17,5 14,5 18,1 18 10 32 18 SSW 1020,0 10 0,0
18.06.2018 10:00:00 18,2 13,8 18,8 22 12 32 18 SSW 1019,8 10 0,0
18.06.2018 09:00:00 17,9 13,2 18,8 21 11 32 18 SW 1019,4 10 0,0
18.06.2018 08:00:00 17,3 12,5 17,4 15 8 25 14 SSW 1019,3 10 0,0
18.06.2018 07:00:00 16,2 12,4 15,9 16 9 25 14 SW 1019,3 10 0,0
18.06.2018 06:00:00 15,6 11,6 15,4 13 7 22 12 S 1019,1 10 0,0
18.06.2018 05:00:00 15,5 11,5 15,3 11 6 29 16 SSW 1019,0 10 0,0
18.06.2018 04:00:00 15,7 11,3 15,5 21 11 32 18 SW 1019,1 10 0,0
18.06.2018 03:00:00 15,5 11,2 15,3 11 6 25 14 SSW 1019,3 10 0,0
18.06.2018 02:00:00 15,7 11,0 15,4 13 7 29 16 SW 1019,6 10 0,0
18.06.2018 01:00:00 15,8 10,3 15,2 13 7 22 12 SW 1019,8 10 0,0
18.06.2018 00:00:00 15,0 11,8 14,4 8 4 11 6 SSW 1019,6 10 0,0
17.06.2018 23:00:00 14,7 12,4 13,6 0 0 7 4 N 1019,6 10 0,0
17.06.2018 22:00:00 15,0 12,2 14,6 5 3 7 4 SSW 1019,4 10 0,0
17.06.2018 21:00:00 15,8 11,7 15,7 4 2 7 4 - 1019,2 10 0,0
17.06.2018 20:00:00 16,0 11,9 16,1 4 2 11 6 SSW 1019,0 10 0,0
17.06.2018 19:00:00 16,0 11,2 15,9 11 6 18 10 W 1019,1 10 0,0
17.06.2018 18:00:00 15,4 11,8 15,7 16 9 32 18 WNW 1019,0 10 0,0
17.06.2018 17:00:00 18,2 9,9 18,8 21 11 32 18 WSW 1018,6 10 0,0
17.06.2018 16:00:00 18,6 10,2 18,9 18 10 29 16 WSW 1018,4 10 0,0
17.06.2018 15:00:00 17,7 9,9 18,3 16 9 29 16 SW 1018,3 10 0,0
17.06.2018 14:00:00 17,6 9,9 - 16 9 - - WSW 1018,0 10 -
17.06.2018 13:00:00 17,1 9,6 17,7 18 10 32 18 SW 1017,8 10 0,0
17.06.2018 12:00:00 17,7 9,3 19,1 22 12 36 19 SW 1017,6 10 0,0
17.06.2018 11:00:00 17,2 10,2 17,9 22 12 36 19 WSW 1017,5 10 0,0
17.06.2018 10:00:00 16,5 9,8 17,6 21 11 32 18 SW 1017,2 10 0,0
17.06.2018 09:00:00 16,1 10,2 17,0 18 10 32 18 SW 1016,8 10 0,0
17.06.2018 08:00:00 15,3 10,2 15,3 22 12 32 18 SW 1016,3 10 0,0
17.06.2018 07:00:00 14,7 10,1 14,2 15 8 29 16 SW 1016,0 10 0,0
17.06.2018 06:00:00 13,8 10,2 13,0 13 7 18 10 SW 1015,9 10 0,0
17.06.2018 05:00:00 12,5 9,5 11,7 13 7 18 10 SSW 1015,8 10 0,0
17.06.2018 04:00:00 13,6 9,7 12,9 13 7 29 16 SSW 1015,7 10 0,0
17.06.2018 03:00:00 15,3 9,6 14,8 16 9 29 16 SW 1015,6 10 0,0
17.06.2018 02:00:00 14,3 9,2 13,0 9 5 14 8 SSW 1015,5 10 0,0
17.06.2018 01:00:00 13,0 8,6 11,5 9 5 11 6 SSW 1015,7 10 0,0
17.06.2018 00:00:00 12,8 8,9 10,7 9 5 18 10 SW 1015,7 10 0,0
16.06.2018 23:00:00 13,3 10,4 10,3 8 4 14 8 SSW 1015,7 10 0,0
16.06.2018 22:00:00 15,7 11,4 13,7 5 3 11 6 SW 1015,4 10 0,0
16.06.2018 21:00:00 18,2 11,0 17,9 8 4 18 10 W 1015,2 10 0,0
16.06.2018 20:00:00 18,5 11,3 18,7 15 8 29 16 NW 1014,9 10 0,0
16.06.2018 19:00:00 19,5 12,2 19,7 16 9 25 14 WNW 1014,7 10 0,0
16.06.2018 18:00:00 21,6 11,7 22,5 15 8 29 16 W 1014,2 10 0,0
16.06.2018 17:00:00 21,9 10,8 22,1 18 10 25 14 W 1014,1 10 0,0
16.06.2018 16:00:00 23,0 10,3 24,4 16 9 32 18 WSW 1014,0 10 0,0
16.06.2018 15:00:00 23,9 10,4 26,0 15 8 25 14 WSW 1014,0 10 0,0
16.06.2018 14:00:00 22,9 10,3 25,3 18 10 32 18 WSW 1014,6 10 0,0
16.06.2018 13:00:00 21,9 10,7 24,0 22 12 32 18 SW 1015,2 10 0,0
16.06.2018 12:00:00 21,6 11,6 23,9 16 9 32 18 SSW 1015,5 10 0,0
16.06.2018 11:00:00 20,2 11,2 21,8 16 9 25 14 SW 1015,5 10 0,0
16.06.2018 10:00:00 18,2 10,6 20,0 13 7 22 12 SSW 1015,3 10 0,0
16.06.2018 09:00:00 17,3 12,6 17,9 11 6 18 10 SW 1015,4 10 0,0
16.06.2018 08:00:00 15,5 13,0 15,1 9 5 14 8 WSW 1015,5 8 0,0
16.06.2018 07:00:00 14,1 12,7 13,2 7 4 11 6 SSW 1015,3 9 0,0
16.06.2018 06:00:00 12,9 12,1 11,2 7 4 11 6 WSW 1015,1 7 0,0
16.06.2018 05:00:00 13,1 12,2 11,9 7 4 11 6 SW 1015,2 8 0,0
16.06.2018 04:00:00 13,7 12,1 10,4 4 2 7 4 SSW 1015,2 10 0,0
16.06.2018 03:00:00 14,9 12,4 13,4 7 4 11 6 WNW 1015,2 11 0,0
16.06.2018 02:00:00 13,8 11,9 12,8 4 2 14 8 SSW 1015,4 12 0,0
16.06.2018 01:00:00 14,7 12,6 13,1 7 4 7 4 NNE 1015,3 15 0,0
16.06.2018 00:00:00 15,2 12,6 12,4 2 1 11 6 NNW 1015,4 10 0,0
15.06.2018 23:00:00 15,5 11,8 10,3 2 1 4 2 - 1015,4 10 0,0
15.06.2018 22:00:00 17,2 12,2 13,4 0 0 7 4 N 1015,3 10 0,0
15.06.2018 21:00:00 20,7 11,9 19,7 4 2 7 4 W 1015,6 10 0,0
15.06.2018 20:00:00 23,5 9,7 24,2 2 1 14 8 - 1015,5 10 0,0
15.06.2018 19:00:00 23,9 9,3 25,5 5 3 14 8 NNW 1015,6 10 0,0

tt = Température de l'air
td = dewpoint
tt 5cm = Température de l'air 5cm
ff = Vitesse du vent
fx = gusts
dd = Direction du vent
ppp = reduced air pressure
vv = visibility
rr = Quantités de précipitations

stations d'obs. à proximité